Wheeling, WV

10:39 AM EDT on April 29, 2017 (GMT -0400)
Wheeling-Ohio County

Weather History for KHLG - October, 2012

Change the Weather History Date:

Sunday, October 14, 2012

  Actual Average Record
Temperature  
Mean Temperature 68 °F 54 °F  
Max Temperature 76 °F 63 °F 79 °F (2014)
Min Temperature 60 °F 44 °F 36 °F (2002)
Degree Days  
Heating Degree Days 0 11  
Month to date heating degree days 164 132  
Since 1 July heating degree days 289 233  
Cooling Degree Days 3    
Month to date cooling degree days 9  
Year to date cooling degree days 983  
Growing Degree Days 18 (Base 50)    
Moisture  
Dew Point 50 °F    
Average Humidity 54    
Maximum Humidity 64    
Minimum Humidity 43    
Precipitation  
Precipitation 0.00 in 0.08 in 1.05 in (2003)
Month to date precipitation 0.43 1.17  
Sea Level Pressure  
Sea Level Pressure 29.93 in    
Wind  
Wind Speed 15 mph (SSW)    
Max Wind Speed 26 mph    
Max Gust Speed 43 mph    
Visibility 10 miles    
Events      
T = Trace of Precipitation, MM = Missing Value Source: NWS Daily Summary

Daily Weather History Graph

Daily Weather History Graph

Search for Another Location

Airport or City:

Trip Planner

Search our weather history database for the weather conditions in past years. The results will help you decide how hot, cold, wet, or windy it might be!

Date:

Astronomy

Oct. 14, 2012 Rise Set
Actual Time 7:32 AM EDT 6:43 PM EDT
Civil Twilight 7:05 AM EDT 7:10 PM EDT
Nautical Twilight 6:33 AM EDT 7:42 PM EDT
Astronomical Twilight 6:02 AM EDT 8:13 PM EDT
Moon 6:30 AM EDT (10/14) 6:02 PM EDT (10/14)
Length of Visible Light 12h 05m
Length of Day
11h 10m
Waning Crescent, 1% of the Moon is Illuminated
Oct 14
Waning Crescent
Oct 15
New
Oct 21
First Quarter
Oct 29
Full
Nov 6
Last Quarter

Hourly Weather History & Observations

Time (EDT) Temp. Dew Point Humidity Pressure Visibility Wind Dir Wind Speed Gust Speed Precip Events Conditions
1:53 AM 63.0 °F 46.0 °F 54% 30.06 in 10.0 mi SSW 13.8 mph 26.5 mph N/A   Mostly Cloudy
2:53 AM 62.1 °F 46.9 °F 58% 30.07 in 10.0 mi SSW 10.4 mph 20.7 mph N/A   Partly Cloudy
3:53 AM 62.1 °F 48.0 °F 60% 30.06 in 10.0 mi SSW 9.2 mph 18.4 mph N/A   Clear
4:53 AM 61.0 °F 48.0 °F 62% 30.06 in 10.0 mi SSW 10.4 mph - N/A   Partly Cloudy
5:53 AM 61.0 °F 48.0 °F 62% 30.05 in 10.0 mi SSW 12.7 mph 20.7 mph N/A   Scattered Clouds
6:53 AM 61.0 °F 48.0 °F 62% 30.07 in 10.0 mi SSW 17.3 mph 25.3 mph N/A   Mostly Cloudy
7:53 AM 61.0 °F 48.0 °F 62% 30.06 in 10.0 mi SSW 15.0 mph 20.7 mph N/A   Scattered Clouds
8:53 AM 62.1 °F 48.0 °F 60% 30.06 in 10.0 mi SSW 15.0 mph 23.0 mph N/A   Scattered Clouds
9:53 AM 64.0 °F 48.9 °F 58% 30.05 in 10.0 mi SSW 13.8 mph 25.3 mph N/A   Overcast
10:53 AM 66.0 °F 50.0 °F 56% 30.04 in 10.0 mi SSW 11.5 mph 19.6 mph N/A   Overcast
11:53 AM 69.1 °F 51.1 °F 53% 30.01 in 10.0 mi SW 9.2 mph 26.5 mph N/A   Mostly Cloudy
12:53 PM 72.0 °F 54.0 °F 53% 29.97 in 10.0 mi South 12.7 mph 20.7 mph N/A   Clear
1:53 PM 72.0 °F 54.0 °F 53% 29.93 in 10.0 mi SSW 13.8 mph 21.9 mph N/A   Clear
2:53 PM 75.0 °F 54.0 °F 48% 29.89 in 10.0 mi SSW 21.9 mph 32.2 mph N/A   Clear
4:53 PM 75.0 °F 52.0 °F 44% 29.83 in 10.0 mi SSW 15.0 mph 29.9 mph N/A   Clear
5:53 PM 73.9 °F 52.0 °F 46% 29.82 in 10.0 mi SSW 12.7 mph 26.5 mph N/A   Mostly Cloudy
6:53 PM 73.0 °F 52.0 °F 48% 29.80 in 10.0 mi SSW 13.8 mph 19.6 mph N/A   Partly Cloudy
7:53 PM 72.0 °F 51.1 °F 48% 29.78 in 10.0 mi South 12.7 mph 25.3 mph N/A   Overcast
8:53 PM 72.0 °F 51.1 °F 48% 29.74 in 10.0 mi SSW 17.3 mph 31.1 mph N/A   Overcast
9:53 PM 70.0 °F 52.0 °F 53% 29.74 in 10.0 mi SSW 17.3 mph 31.1 mph N/A   Scattered Clouds
10:53 PM 71.1 °F 52.0 °F 51% 29.73 in 10.0 mi SSW 23.0 mph 33.4 mph N/A   Overcast
11:53 PM 70.0 °F 53.1 °F 55% 29.71 in 10.0 mi SSW 17.3 mph 29.9 mph N/A   Overcast